Location: Hac?musa Deresi
(39.1694°N, 32.2508°E)
Time: 10:55:34
(UTC+00:00)

ERS-1 Rocket - Pass Details

Date: 22 April 2026
Orbit: 747 x 751 km, 98.2° (Epoch: 20 May)

Event Time Altitude Azimuth Distance (km) Brightness Sun altitude
Exits shadow 18:54:04 18° 210° (SSW) 1,753 4.7 -24.2°
Maximum altitude 18:57:01 34° 263° (W) 1,228 4.3 -24.7°
Drops below altitude 10° 19:01:33 10° 328° (NNW) 2,277 6.4 -25.3°
Sets 19:04:04 0° 338° (NNW) 3,207 7.3 -25.6°
